Location: Champseau
(45.8333°N, 1.7667°E)
Time: 07:59:46
(UTC+00:00)

ITUPSAT 1 - Pass Details

Date: 03 December 2021
Orbit: 700 x 713 km, 98.6° (Epoch: 27 January)

Event Time Altitude Azimuth Distance (km) Brightness Sun altitude
Rises 04:59:14 0° 108° (ESE) 3,097 ? -23.1°
Reaches altitude 10° 05:02:51 10° 79° (E) 2,187 ? -22.5°
Maximum altitude 05:04:44 12° 56° (NE) 2,037 ? -22.1°
Drops below altitude 10° 05:06:37 10° 33° (NNE) 2,195 ? -21.8°
Sets 05:10:15 0° 4° (N) 3,123 ? -21.2°
